Flag for Australia Weather past 2 weeks in Dubbo, New South Wales, Australia

Now
82 °F

Sunny.


Feels Like: 82 °F
Forecast: 62 / 82 °F
Wind: 5 mph from West

Location: Dubbo Airport

Current Time: Feb 1, 2015 at 12:36:52 PM

Latest Report: Feb 1, 2015 at 12:00 PM


Visibility: N/A

Pressure: 29.80 "Hg

Humidity: 40%

Dew point: 55 °F

Location of DubboLocation

Historic Weather in Dubbo — Graph

°F

Dubbo temperature yesterday

Maximum temperature yesterday: 82 °F (at 3:30 PM)
Minimum temperature yesterday: 46 °F (at 6:30 AM)
Average temperature yesterday: 67 °F

Past Weeks' High & Low Weather Summary

 TemperatureHumidityPressure
High93 °F (Jan 23, 1:30 PM)100% (Jan 23, 9:46 PM)29.95 "Hg (Jan 23, 9:46 PM)
Low46 °F (Jan 31, 6:30 AM)23% (Jan 30, 6:00 PM)29.62 "Hg (Jan 20, 5:30 PM)
Average73 °F64%29.80 "Hg
* Reported Jan 17 11:00 AM — Feb 1 11:00 AM, Dubbo, Weather by CustomWeather, © 2014

Note: Actual official high and low records may vary slightly from our data, if they occured in-between our weather recording intervals... More about our weather records

Advertising

Dubbo weather history for previous 24 hours

 ConditionsComfort  
Time TempWeatherWind HumidityBarometerVisibility
11:00 AM
Feb 1
79 °FSunny.6 mph54%29.83 "HgN/A
10:30 AM77 °FSunny.5 mph54%29.83 "HgN/A
10:00 AM73 °FSunny.8 mph69%29.83 "HgN/A
9:30 AM72 °FSunny.6 mph69%29.83 "HgN/A
9:00 AM70 °FSunny.8 mph64%29.83 "HgN/A
8:00 AM63 °FSunny.5 mph73%29.80 "HgN/A
7:30 AM57 °FSunny.5 mph88%29.80 "HgN/A
7:00 AM52 °FSunny.5 mph94%29.80 "HgN/A
6:00 AM50 °FClear.6 mph94%29.77 "HgN/A
5:30 AM50 °FClear.6 mph94%29.77 "HgN/A
5:00 AM52 °FClear.5 mph88%29.77 "HgN/A
4:00 AM55 °FClear.5 mph77%29.74 "HgN/A
3:30 AM55 °FClear.5 mph77%29.77 "HgN/A
3:00 AM55 °FClear.3 mph77%29.77 "HgN/A
2:00 AM57 °FClear.No wind77%29.77 "HgN/A
1:30 AM59 °FClear.8 mph72%29.77 "HgN/A
1:00 AM59 °FClear.8 mph68%29.77 "HgN/A
12:30 AM59 °FClear.7 mph68%29.80 "HgN/A
12:00 AM63 °FClear.7 mph59%29.80 "HgN/A
11:30 PM
Jan 31
63 °FClear.8 mph59%29.80 "HgN/A
11:00 PM64 °FClear.7 mph56%29.80 "HgN/A
10:30 PM64 °FClear.8 mph56%29.80 "HgN/A
10:00 PM66 °FClear.8 mph52%29.77 "HgN/A
9:30 PM68 °FClear.8 mph49%29.77 "HgN/A
9:00 PM70 °FClear.8 mph46%29.77 "HgN/A
8:00 PM75 °FSunny.9 mph39%29.74 "HgN/A
7:30 PM79 °FSunny.8 mph34%29.74 "HgN/A
7:00 PM81 °FSunny.10 mph32%29.74 "HgN/A
6:30 PM81 °FSunny.14 mph32%29.71 "HgN/A
6:00 PM82 °FSunny.12 mph30%29.71 "HgN/A
5:30 PM82 °FSunny.13 mph30%29.71 "HgN/A
5:00 PM82 °FSunny.13 mph28%29.71 "HgN/A
4:30 PM82 °FSunny.14 mph28%29.74 "HgN/A
4:00 PM82 °FSunny.15 mph28%29.74 "HgN/A
3:30 PM82 °FSunny.14 mph32%29.74 "HgN/A
3:00 PM81 °FSunny.12 mph30%29.74 "HgN/A
2:00 PM81 °FSunny.13 mph30%29.77 "HgN/A
1:30 PM79 °FSunny.14 mph32%29.77 "HgN/A
1:00 PM79 °FSunny.16 mph34%29.77 "HgN/A
12:30 PM77 °FSunny.14 mph34%29.77 "HgN/A
12:00 PM77 °FSunny.7 mph39%29.80 "HgN/A
Weather by CustomWeather, © 2014

See weather overviewHow to use our weather pages